Flag for Sweden Weather past 2 weeks in Norrköping, Sweden

Now
55 °F

Rain. Low clouds.


Feels Like: 53 °F
Forecast: 52 / 65 °F
Wind: 10 mph from Northeast

Location: Norrkoping Airport

Current Time: Sep 1, 2015 at 7:03:45 AM

Latest Report: Sep 1, 2015 at 6:20 AM


Visibility: N/A

Pressure: 29.83 "Hg

Humidity: 94%

Dew point: 54 °F

Location of NorrköpingLocation

Historic Weather in Norrköping — Graph

°F

Norrköping temperature yesterday

Maximum temperature yesterday: 68 °F (at 11:50 AM)
Minimum temperature yesterday: 48 °F (at 1:50 AM)
Average temperature yesterday: 59 °F

Past Weeks' High & Low Weather Summary

 TemperatureHumidityPressure
High77 °F (Aug 24, 1:50 PM)100% (Aug 17, 5:20 AM)30.42 "Hg (Aug 17, 5:20 AM)
Low41 °F (Aug 20, 5:20 AM)36% (Aug 22, 2:20 PM)29.62 "Hg (Aug 27, 2:50 PM)
Average61 °F77%30.10 "Hg
* Reported Aug 17 5:20 AM — Sep 1 5:50 AM, Norrköping, Weather by CustomWeather, © 2015

Note: Actual official high and low records may vary slightly from our data, if they occured in-between our weather recording intervals... More about our weather records

Advertising

Norrköping weather history for previous 24 hours

 ConditionsComfort  
Time TempWeatherWind HumidityBarometerVisibility
5:50 AM
Tue, Sep 1
55 °FRain. Partly cloudy.12 mph94%29.86 "Hg4 mi
4:50 AM55 °FDrizzle. Overcast.13 mph100%29.86 "HgN/A
4:20 AM55 °FLight rain. Mostly cloudy.9 mph100%29.89 "HgN/A
3:50 AM55 °FLight rain. Mostly cloudy.8 mph100%29.86 "HgN/A
3:20 AM57 °FLight rain. Mostly cloudy.12 mph94%29.89 "HgN/A
2:50 AM57 °FLight rain. Overcast.9 mph100%29.92 "HgN/A
2:20 AM57 °FDrizzle. Mostly cloudy.9 mph100%29.92 "HgN/A
1:50 AM57 °FRain. Partly cloudy.6 mph100%29.92 "Hg3 mi
1:20 AM57 °FLight rain. Overcast.2 mph100%29.95 "Hg6 mi
12:50 AM57 °FLight rain. Mostly cloudy.3 mph100%29.95 "Hg4 mi
12:20 AM57 °FRain. Overcast.2 mph100%29.95 "Hg3 mi
11:20 PM
Mon, Aug 31
57 °FDrizzle. Overcast.3 mph100%29.95 "HgN/A
10:50 PM59 °FLight rain. Overcast.3 mph88%29.98 "HgN/A
10:20 PM59 °FDrizzle. Overcast.6 mph88%29.98 "HgN/A
9:50 PM61 °FClear.6 mph88%29.98 "Hg10 mi
9:20 PM61 °FClear.6 mph94%29.98 "Hg10 mi
8:50 PM61 °FSunny.3 mph94%29.98 "Hg10 mi
8:20 PM63 °FSunny.3 mph88%29.98 "Hg10 mi
7:50 PM63 °FSunny.2 mph88%29.98 "Hg10 mi
7:20 PM63 °FPassing clouds.3 mph83%29.98 "HgN/A
6:50 PM64 °FPassing clouds.3 mph73%29.98 "HgN/A
6:20 PM64 °FScattered clouds.6 mph68%30.01 "HgN/A
5:50 PM64 °FScattered clouds.6 mph68%30.01 "HgN/A
5:20 PM66 °FScattered clouds.5 mph68%30.01 "HgN/A
4:50 PM66 °FScattered clouds.6 mph64%30.01 "HgN/A
4:20 PM66 °FPartly sunny.3 mph64%30.01 "HgN/A
3:50 PM68 °FScattered clouds.3 mph56%30.04 "HgN/A
3:20 PM68 °FSunny.3 mph56%30.04 "Hg10 mi
2:50 PM68 °FPassing clouds.6 mph56%30.04 "HgN/A
2:20 PM68 °FPassing clouds.3 mph56%30.04 "HgN/A
1:50 PM66 °FSunny.3 mph64%30.04 "Hg10 mi
1:20 PM66 °FSunny.3 mph64%30.07 "Hg10 mi
12:50 PM66 °FSunny.2 mph64%30.07 "Hg10 mi
12:20 PM68 °FSunny.3 mph53%30.07 "Hg10 mi
11:50 AM68 °FSunny.3 mph56%30.07 "Hg10 mi
11:20 AM66 °FSunny.2 mph64%30.07 "Hg10 mi
10:50 AM64 °FSunny.2 mph68%30.07 "Hg10 mi
10:20 AM63 °FSunny.No wind77%30.07 "Hg10 mi
9:50 AM61 °FSunny.No wind83%30.07 "Hg10 mi
9:20 AM59 °FSunny.No wind88%30.07 "Hg10 mi
8:50 AM57 °FSunny.No wind94%30.07 "Hg10 mi
8:20 AM55 °FSunny.No wind100%30.07 "Hg10 mi
7:50 AM54 °FSunny.1 mph100%30.07 "Hg10 mi
7:20 AM50 °FLight fog.No wind100%30.07 "HgN/A
Weather by CustomWeather, © 2015

See weather overviewHow to use our weather pages